Regional Weather Roundup
Issued by NWS Spokane, WA

Home | Current Version | Previous Version | Text Only | Print | Product List | Glossary On
Versions: 1 2 3 4 5 6 7 8 9 10 11 12 13 14 15 16 17 18 19 20 21 22 23 24 25 26 27 28 29 30 31 32 33 34 35 36 37 38 39 40 41 42 43 44 45 46 47 48 49 50
000
NZUS01 KOTX 290810
RWROTX
EASTERN WASHINGTON/NORTHERN IDAHO ROUNDUP
NATIONAL WEATHER SERVICE, SPOKANE WA
1200 AM PST MON DEC 29 2014

Note: "fair" indicated few or no clouds below 12,000 feet with no
significant weather and/or obstructions to visibility.

...NORTHEAST WASHINGTON AND NORTHERN IDAHO PANHANDLE...

CITY           SKY/WX    TMP DP  RH WIND       PRES   REMARKS
SPOKANE INTL   LGT SNOW  28  25  88 NE9       30.14S FOG     WCI  19
SPOKANE DOWNTO FLURRIES  30  21  69 NE8       30.18R WCI  22
COEUR D ALENE  MOCLDY    25  19  80 N22G29    30.18R WCI  10
DEER PARK      CLOUDY    26  21  81 NE17G28   30.20R WCI  13
SANDPOINT      CLOUDY    23  18  80 N30G37    30.27R HAZE    WCI   5

...SOUTHEAST WASHINGTON AND SOUTHERN IDAHO PANHANDLE...

CITY           SKY/WX    TMP DP  RH WIND       PRES   REMARKS
WALLA WALLA    CLOUDY    36  31  82 CALM      30.14S
PULLMAN/MOSCOW CLOUDY    26  24  92 CALM      30.11F
LEWISTON       CLOUDY    31  29  92 E5        30.15S WCI  26
LOWELL           N/A     32  31  96 CALM      30.16S

...COLUMBIA BASIN...

CITY           SKY/WX    TMP DP  RH WIND       PRES   REMARKS
EPHRATA        CLOUDY    31  27  85 N9        30.15S WCI  23
MOSES LAKE     CLOUDY    31  28  89 NE6       30.16S WCI  25
TRI CITIES     CLOUDY    34  34 100 E3        30.17S
HERMISTON      CLOUDY    37  33  85 E8        30.13S
PENDLETON      CLOUDY    33  31  92 NE10      30.10F WCI  25

...EAST SLOPES CASCADES...

CITY           SKY/WX    TMP DP  RH WIND       PRES   REMARKS
THE DALLES     CLOUDY    39  35  86 W6        30.14F
YAKIMA         CLOUDY    34  31  88 CALM      30.13S
ELLENSBURG     CLOUDY    34  28  79 SE6       30.10S WCI  29
WENATCHEE      FOG       33  32  96 NW3       30.17S VSB 1/2
OMAK           LGT SNOW  32  28  85 N13       30.21R FOG     WCI  22

...SOUTHERN BRITISH COLUMBIA...

CITY           SKY/WX    TMP DP  RH WIND       PRES   REMARKS

...WESTERN MONTANA...

CITY           SKY/WX    TMP DP  RH WIND       PRES   REMARKS
MISSOULA       CLOUDY    16   7  67 SE18      30.29R WCI   0

...NEIGHBORING CITIES...

CITY           SKY/WX    TMP DP  RH WIND       PRES   REMARKS
SEATTLE        MOCLDY    38  36  92 CALM      30.15S
CALGARY        LGT SNOW   5   0  78 N12       30.58R WCI -11



USA.gov is the U.S. government's official web portal to all federal, state and local government web resources and services.